[[{"header":{"parameterUnit":"m.s-1","parameterCategory":2,"la1":30.2991,"la2":30.254,"lo1":-89.0895,"lo2":-89.0444,"dy":0.0017,"dx":0.0017,"nx":28,"ny":28,"refTime":"2025-11-15T03:00:00:Z","depth":"0","parameterNumber":2,"parameterNumberName":"U-component_of_CURRENTS"},"data":[0,0,0,0,0,0,0,0,0,0,0,0,0,0,0,0,0,0,0,0,0,0,0,0,0,0,0,0,0,0,0,0,0,0,0,0,0,0,0,0,0,0,0,0,0,0,0,0,0,0,0,0,0,0,0,0,0,0,0.1232,0.1233,0,0.1311,0.1312,0.1312,0.1283,0.1281,0.1279,0.1278,0.1357,0.1361,0.1364,0,0,0,0,0,0,0,0,0,0,0,0,0,0.1085,0.1087,0.1232,0.1233,0.1234,0.1311,0.1312,0.1313,0.1283,0.1281,0.1279,0.1277,0.1356,0.136,0.1365,0,0,0,0,0,0,0,0,0,0,0,0,0,0.1153,0.1088,0.1231,0.1229,0.123,0.1311,0.1312,0.1313,0.1284,0.1281,0.1278,0.1276,0.1354,0.136,0.1365,0.1451,0,0,0.1382,0.1385,0,0,0,0,0,0,0,0,0.115,0.1159,0.1228,0.1229,0.123,0.1285,0.1289,0.1359,0.1284,0.1262,0.1278,0.1275,0.1336,0.1343,0.1362,0.1454,0.1458,0.1383,0.1386,0.1388,0.139,0,0,0,0,0,0,0,0.1145,0.1155,0.1262,0.123,0.1231,0.1235,0.1241,0.1302,0.1311,0.1264,0.1262,0.1274,0.1336,0.1356,0.1363,0.1459,0.1383,0.1387,0.1391,0.1393,0.1685,0.169,0,0,0,0,0,0,0.1139,0.1151,0.1259,0.1264,0.1184,0.1239,0.1246,0.1269,0.1311,0.1315,0.1276,0.1272,0.1348,0.1357,0.1366,0.1507,0.1388,0.1394,0.1397,0.1681,0.1686,0.1691,0,0,0,0,0,0,0.1136,0.1149,0.1256,0.1209,0.1223,0.1244,0.127,0.1272,0.1297,0.132,0.1323,0.1298,0.1346,0.1358,0.1461,0.1508,0.1396,0.1401,0.1676,0.1683,0.1689,0.1765,0,0,0,0,0,0,0.1132,0.1148,0.1174,0.121,0.1226,0.1325,0.1273,0.1276,0.1308,0.1304,0.1341,0.1345,0.1345,0.1453,0.1467,0.1513,0.1406,0.167,0.1679,0.1687,0.1757,0.1773,0.1787,0,0,0,0,0,0.1127,0.1184,0.1176,0.1189,0.1258,0.1328,0.1338,0.1341,0.1312,0.1349,0.1385,0.1344,0.1514,0.1463,0.1477,0.1526,0.1666,0.1676,0.1686,0.175,0.177,0.1787,0,0,0,0,0,0,0.1157,0.1188,0.1179,0.1248,0.1288,0.1323,0.1362,0.1358,0.1415,0.1412,0.1413,0.1425,0.1531,0.1538,0.148,0.164,0.158,0.1593,0.1623,0.1643,0.1658,0.165,0.141,0,0,0,0,0,0.1171,0.1212,0.1244,0.1306,0.1321,0.1341,0.1371,0.1377,0.1424,0.1443,0.147,0.1516,0.1588,0.1619,0.1682,0.1777,0.1789,0.1819,0.1834,0.1846,0.1856,0.1933,0.1955,0.1724,0.1724,0.1724,0,0,0.1204,0.1227,0.1253,0.1313,0.1337,0.1392,0.1353,0.1413,0.1465,0.1449,0.1538,0.158,0.1632,0.1737,0.1783,0.1742,0.1925,0.1859,0.1869,0.1871,0.1945,0.1967,0.1987,0.1731,0.1729,0.1728,0,0,0.1287,0.1305,0.1356,0.1385,0.143,0.1452,0.1471,0.1516,0.1537,0.1636,0.1641,0.1722,0.1813,0.1864,0.1899,0.2047,0.2011,0.2058,0.2117,0.2193,0.2211,0.2227,0.228,0.23,0.2054,0.2054,0.2054,0,0.1325,0.1384,0.139,0.1439,0.1468,0.1479,0.1538,0.1584,0.1662,0.1691,0.1676,0.1838,0.1877,0.2005,0.2054,0.2078,0.2103,0.2031,0.2208,0.2225,0.224,0.229,0.2311,0.2059,0.2058,0.2058,0.2057,0,0.1431,0.1472,0.151,0.1563,0.1605,0.1666,0.1705,0.176,0.1778,0.1809,0.193,0.2002,0.2081,0.2119,0.2132,0.2268,0.2246,0.2221,0.2145,0.2267,0.2313,0.2334,0.2066,0.2064,0.2063,0.2062,0,0,0.1527,0.1571,0.1581,0.1595,0.1664,0.1704,0.1799,0.1876,0.1916,0.2002,0.2071,0.2214,0.2217,0.2263,0.2293,0.2364,0.2501,0.2338,0.234,0.2363,0.2658,0.2625,0.2643,0.2496,0.25,0.2504,0.2648,0,0.1604,0.1679,0.1697,0.1781,0.1816,0.184,0.1916,0.1983,0.2033,0.2107,0.2184,0.2268,0.2281,0.2315,0.2403,0.2472,0.2558,0.2463,0.2561,0.2565,0.2498,0.2668,0.2652,0.2778,0.2668,0.2671,0.2673,0,0.1696,0.1725,0.1798,0.1837,0.1855,0.191,0.1986,0.2055,0.2155,0.2188,0.2281,0.2324,0.2464,0.2441,0.2635,0.2568,0.2634,0.2682,0.2688,0.2642,0.2571,0.2643,0.2819,0.2685,0.2705,0.2702,0.27,0,0.1722,0.1794,0.1839,0.1856,0.1918,0.195,0.199,0.2075,0.2117,0.223,0.2265,0.2419,0.2482,0.261,0.2713,0.2682,0.29,0.2859,0.2902,0.2898,0.2899,0.2888,0.2932,0.3017,0.3016,0.3016,0.3016,0,0.1785,0.1819,0.184,0.186,0.1903,0.1946,0.2002,0.2057,0.2139,0.2191,0.2293,0.2369,0.2526,0.2653,0.2752,0.2897,0.2938,0.2958,0.2957,0.2927,0.2918,0.2806,0.2722,0.3021,0.302,0.3019,0.3018,0,0.1803,0.1825,0.1861,0.1902,0.191,0.1932,0.1973,0.2012,0.209,0.2164,0.2199,0.2351,0.2518,0.267,0.2871,0.2929,0.3,0.3109,0.3051,0.3041,0.2931,0.2852,0.2816,0.2786,0.3193,0.3193,0.3194,0,0.1818,0.1837,0.1858,0.1857,0.1868,0.1894,0.1912,0.198,0.2015,0.215,0.2187,0.2361,0.2482,0.2761,0.2934,0.3128,0.3018,0.3184,0.3133,0.2963,0.2876,0.2716,0.2682,0.3174,0.3174,0.3174,0.3174,0,0.1825,0.1825,0.1835,0.1829,0.1832,0.1844,0.187,0.189,0.1978,0.2047,0.2157,0.2264,0.2543,0.273,0.2969,0.3103,0.3026,0.3188,0.3054,0.2917,0.2709,0.2665,0.3008,0.3175,0.3175,0.3175,0.3175,0.3175,0.1806,0.1797,0.1792,0.1783,0.1786,0.1784,0.1783,0.1826,0.1875,0.1967,0.209,0.2233,0.2498,0.2846,0.2961,0.3086,0.3025,0.3048,0.2987,0.2853,0.2765,0.3091,0.3214,0.3214,0.3215,0.3215,0.3215,0,0.1756,0.1745,0.1742,0.1722,0.1704,0.1726,0.1746,0.1749,0.1785,0.1902,0.1999,0.2234,0.2451,0.2685,0.2899,0.2862,0.2831,0.2808,0.2596,0.2596,0.2951,0.2888,0.2894,0.2894,0.2894,0.2894,0.2894,0.2895,0.1724,0.1691,0.1685,0.1635,0.1626,0.1599,0.16,0.163,0.17,0.1806,0.1917,0.2038,0.225,0.2439,0.253,0.2571,0.2397,0.2339,0.2285,0.2521,0.2538,0.2553,0.2474,0.2393,0.2393,0.1911,0.1907,0.1904]},{"header":{"parameterUnit":"m.s-1","parameterCategory":2,"la1":30.2991,"la2":30.254,"lo1":-89.0895,"lo2":-89.0444,"dy":0.0017,"dx":0.0017,"nx":28,"ny":28,"refTime":"2025-11-15T03:00:00:Z","depth":"0","parameterNumber":3,"parameterNumberName":"V-component_of_CURRENTS"},"data":[0,0,0,0,0,0,0,0,0,0,0,0,0,0,0,0,0,0,0,0,0,0,0,0,0,0,0,0,0,0,0,0,0,0,0,0,0,0,0,0,0,0,0,0,0,0,0,0,0,0,0,0,0,0,0,0,0,0,0.0526,0.0526,0,0.0544,0.0544,0.0544,0.0498,0.0497,0.0496,0.0495,0.0458,0.0458,0.0458,0,0,0,0,0,0,0,0,0,0,0,0,0,0.0419,0.0421,0.0526,0.0526,0.0527,0.0544,0.0544,0.0544,0.0498,0.0497,0.0495,0.0494,0.0458,0.0458,0.0458,0,0,0,0,0,0,0,0,0,0,0,0,0,0.0451,0.0422,0.0525,0.0508,0.0507,0.0544,0.0544,0.0544,0.0498,0.0497,0.0495,0.0493,0.0458,0.0458,0.0458,0.0493,0,0,0.0458,0.0458,0,0,0,0,0,0,0,0,0.045,0.0455,0.051,0.051,0.0509,0.052,0.0493,0.0525,0.0499,0.0498,0.0495,0.0493,0.0477,0.0475,0.0479,0.0491,0.049,0.0458,0.0458,0.0459,0.0459,0,0,0,0,0,0,0,0.0447,0.0454,0.0529,0.0511,0.051,0.0489,0.0492,0.0499,0.0493,0.0498,0.0496,0.0504,0.0475,0.0479,0.0477,0.0489,0.0458,0.0458,0.0459,0.0459,0.0495,0.0496,0,0,0,0,0,0,0.0456,0.0452,0.0529,0.053,0.0478,0.0493,0.0496,0.0515,0.0494,0.0491,0.0505,0.0502,0.0479,0.0477,0.0476,0.0522,0.0459,0.0459,0.0459,0.0494,0.0496,0.0497,0,0,0,0,0,0,0.0454,0.0463,0.0528,0.0493,0.05,0.0497,0.0519,0.0517,0.0519,0.0501,0.0495,0.051,0.0478,0.0476,0.0497,0.0519,0.0459,0.0459,0.0493,0.0495,0.0496,0.0609,0,0,0,0,0,0,0.0451,0.0463,0.0479,0.0494,0.0503,0.0563,0.0521,0.0518,0.0528,0.0523,0.0504,0.0499,0.0476,0.0497,0.0497,0.0518,0.0459,0.0492,0.0494,0.0496,0.0605,0.0615,0.0623,0,0,0,0,0,0.0447,0.0489,0.048,0.0489,0.0526,0.0565,0.0568,0.0556,0.053,0.0547,0.0535,0.0499,0.0506,0.0499,0.0498,0.052,0.0491,0.0493,0.0495,0.06,0.0613,0.0623,0,0,0,0,0,0,0.046,0.0489,0.0479,0.0529,0.0547,0.0558,0.0576,0.0565,0.0569,0.0562,0.0529,0.0526,0.0548,0.052,0.0513,0.0532,0.0486,0.0488,0.0565,0.0577,0.0586,0.0602,0.0459,0,0,0,0,0,0.0471,0.0502,0.0523,0.0563,0.0572,0.0572,0.0584,0.0582,0.0589,0.0588,0.0577,0.056,0.0558,0.0557,0.0552,0.0577,0.0543,0.0582,0.0592,0.06,0.061,0.0584,0.0592,0.0503,0.0503,0.0503,0,0,0.0487,0.0507,0.0525,0.0566,0.0574,0.0614,0.0575,0.0608,0.0636,0.0586,0.062,0.0601,0.0572,0.0597,0.0602,0.0577,0.0608,0.0602,0.061,0.0616,0.0587,0.0595,0.0603,0.0505,0.0504,0.0504,0,0,0.0539,0.0552,0.0591,0.0612,0.064,0.0651,0.0664,0.0683,0.0681,0.0719,0.0682,0.0685,0.0685,0.0674,0.0664,0.0722,0.0661,0.0705,0.0767,0.0742,0.0749,0.0755,0.0732,0.0735,0.0706,0.0707,0.0707,0,0.0552,0.0608,0.061,0.0652,0.0678,0.0672,0.0722,0.0733,0.0758,0.0762,0.0742,0.0745,0.0723,0.0746,0.0761,0.0746,0.0716,0.0732,0.0756,0.0761,0.0765,0.074,0.0741,0.0712,0.0712,0.0711,0.071,0,0.063,0.0671,0.07,0.0749,0.078,0.0826,0.0844,0.0869,0.0865,0.0866,0.0888,0.0869,0.0863,0.0855,0.083,0.0848,0.0813,0.0775,0.0732,0.0781,0.0751,0.0751,0.072,0.0718,0.0717,0.0715,0,0,0.0671,0.0739,0.0748,0.0776,0.0833,0.0866,0.0922,0.0963,0.0985,0.0997,0.1022,0.1023,0.0995,0.0982,0.0948,0.093,0.0938,0.087,0.0866,0.0857,0.0881,0.0848,0.0843,0.0899,0.09,0.09,0.0852,0,0.0728,0.0813,0.084,0.0925,0.0969,0.0985,0.1036,0.1066,0.1076,0.11,0.1075,0.1085,0.1047,0.1041,0.1026,0.0954,0.0941,0.0955,0.0827,0.0823,0.0795,0.0844,0.0867,0.0824,0.0851,0.0851,0.0851,0,0.0799,0.0844,0.0929,0.0997,0.1017,0.1067,0.1129,0.1173,0.1198,0.1199,0.1207,0.1179,0.1173,0.1122,0.1053,0.1059,0.0988,0.0931,0.0927,0.0856,0.079,0.0776,0.0822,0.073,0.085,0.085,0.085,0,0.0819,0.0908,0.0973,0.0999,0.1078,0.1112,0.1153,0.1196,0.1226,0.1254,0.1267,0.1255,0.1238,0.1167,0.1065,0.1051,0.0973,0.093,0.0841,0.0837,0.0813,0.0806,0.0763,0.0886,0.0886,0.0886,0.0886,0,0.0874,0.0923,0.0981,0.1016,0.1084,0.1131,0.1198,0.1231,0.1279,0.1313,0.131,0.1328,0.1244,0.119,0.1094,0.0976,0.0994,0.0868,0.0828,0.0852,0.085,0.073,0.0668,0.0884,0.0884,0.0885,0.0885,0,0.0888,0.0931,0.0999,0.1073,0.1095,0.114,0.1217,0.1261,0.1303,0.135,0.136,0.1369,0.1309,0.1222,0.11,0.1004,0.0844,0.0846,0.0886,0.0852,0.0675,0.0619,0.0536,0.05,0.0743,0.0742,0.0741,0,0.0902,0.094,0.102,0.1053,0.1085,0.115,0.1198,0.1263,0.1305,0.1371,0.139,0.137,0.1363,0.1199,0.1046,0.0896,0.0813,0.0792,0.0772,0.0684,0.0592,0.0572,0.0547,0.0785,0.0785,0.0785,0.0784,0,0.0917,0.0943,0.0991,0.1056,0.1107,0.1171,0.1236,0.1274,0.135,0.1392,0.1435,0.144,0.1324,0.1209,0.102,0.0902,0.074,0.0778,0.0681,0.0625,0.0608,0.0548,0.0795,0.0781,0.0782,0.0782,0.0782,0.0782,0.0911,0.0939,0.0996,0.1057,0.1118,0.1183,0.1225,0.1291,0.1359,0.1428,0.1452,0.148,0.1363,0.1124,0.0951,0.0682,0.0684,0.0603,0.0543,0.0533,0.0499,0.074,0.0681,0.068,0.068,0.068,0.068,0,0.0896,0.0934,0.0994,0.1066,0.1124,0.1162,0.1246,0.1285,0.1348,0.1435,0.148,0.1475,0.1282,0.1072,0.0738,0.051,0.0447,0.0391,0.0378,0.0363,0.0575,0.0578,0.0501,0.0502,0.0502,0.0502,0.0502,0.0502,0.0888,0.0929,0.0966,0.1049,0.1102,0.1163,0.1206,0.1268,0.1337,0.143,0.1483,0.1545,0.1433,0.0857,0.043,0.032,0.0182,0.0148,0.0067,0.0212,0.0228,0.0243,0.0233,0.0086,0.0085,-0.0081,-0.0083,-0.0085]}],[{"header":{"parameterUnit":"m.s-1","parameterCategory":2,"la1":30.2991,"la2":30.254,"lo1":-89.0895,"lo2":-89.0444,"dy":0.0017,"dx":0.0017,"nx":28,"ny":28,"refTime":"2025-11-15T03:00:00:Z","depth":"2","parameterNumber":2,"parameterNumberName":"U-component_of_CURRENTS"},"data":[0,0,0,0,0,0,0,0,0,0,0,0,0,0,0,0,0,0,0,0,0,0,0,0,0,0,0,0,0,0,0,0,0,0,0,0,0,0,0,0,0,0,0,0,0,0,0,0,0,0,0,0,0,0,0,0,0,0,0.0411,0.0411,0,0.0391,0.0391,0.039,0.0383,0.0383,0.0383,0.0383,0.0376,0.0376,0.0376,0,0,0,0,0,0,0,0,0,0,0,0,0,0.0442,0.0441,0.0411,0.0411,0.0411,0.0391,0.0391,0.039,0.0383,0.0383,0.0383,0.0383,0.0376,0.0376,0.0376,0,0,0,0,0,0,0,0,0,0,0,0,0,0.0425,0.0441,0.0411,0.0405,0.0404,0.0391,0.0391,0.039,0.0383,0.0383,0.0383,0.0383,0.0377,0.0376,0.0376,0.0369,0,0,0.0374,0.0374,0,0,0,0,0,0,0,0,0.0426,0.0424,0.0406,0.0405,0.0405,0.039,0.0399,0.0384,0.0383,0.039,0.0383,0.0384,0.0383,0.0382,0.0376,0.0369,0.0368,0.0374,0.0374,0.0374,0.0374,0,0,0,0,0,0,0,0.0427,0.0425,0.0402,0.0406,0.0405,0.0403,0.0401,0.0396,0.0385,0.039,0.0389,0.0388,0.0382,0.0377,0.0376,0.0368,0.0374,0.0374,0.0374,0.0373,0.0389,0.039,0,0,0,0,0,0,0.0431,0.0426,0.0403,0.0402,0.0417,0.0403,0.04,0.0394,0.0385,0.0384,0.0388,0.0388,0.0377,0.0377,0.0376,0.0411,0.0374,0.0373,0.0373,0.0388,0.0389,0.039,0,0,0,0,0,0,0.0432,0.0429,0.0404,0.0414,0.0411,0.0402,0.0395,0.0394,0.0397,0.0384,0.0383,0.0394,0.0377,0.0376,0.0386,0.0409,0.0373,0.0373,0.0388,0.0389,0.039,0.0454,0,0,0,0,0,0,0.0432,0.0429,0.043,0.0414,0.0411,0.0404,0.0395,0.0393,0.0396,0.0396,0.0389,0.0387,0.0378,0.0386,0.0385,0.0408,0.0372,0.0387,0.0388,0.0389,0.0451,0.0457,0.0463,0,0,0,0,0,0.0434,0.0432,0.043,0.0427,0.041,0.0405,0.0403,0.0396,0.0396,0.04,0.04,0.0388,0.0394,0.0387,0.0385,0.0408,0.0386,0.0388,0.0389,0.0449,0.0456,0.0462,0,0,0,0,0,0,0.0445,0.0431,0.0428,0.0422,0.0419,0.0404,0.0407,0.0403,0.0404,0.0409,0.0396,0.0396,0.0411,0.0399,0.0391,0.0415,0.0388,0.0389,0.0434,0.0441,0.0446,0.045,0.0372,0,0,0,0,0,0.0448,0.0444,0.0433,0.043,0.043,0.0421,0.0419,0.0417,0.0414,0.0415,0.0413,0.0412,0.0414,0.0419,0.0414,0.0429,0.043,0.0442,0.0448,0.0453,0.0454,0.0472,0.048,0.0395,0.0395,0.0395,0,0,0.0452,0.0445,0.0442,0.0433,0.043,0.0434,0.0421,0.0424,0.0434,0.0414,0.0433,0.043,0.0421,0.0438,0.0445,0.0434,0.0483,0.0455,0.0459,0.0458,0.0475,0.0483,0.049,0.0396,0.0396,0.0396,0,0,0.0461,0.0453,0.0455,0.0455,0.0454,0.0449,0.0454,0.045,0.0456,0.047,0.0462,0.0473,0.0477,0.0477,0.0477,0.0509,0.0509,0.0513,0.055,0.0569,0.0576,0.0582,0.0619,0.0629,0.052,0.052,0.052,0,0.0471,0.0468,0.0457,0.0463,0.0467,0.046,0.0471,0.0473,0.0476,0.0489,0.0485,0.0503,0.0493,0.0517,0.0531,0.0522,0.0542,0.0528,0.0578,0.0584,0.0589,0.0625,0.0634,0.0523,0.0523,0.0523,0.0522,0,0.0481,0.0484,0.0487,0.0492,0.0495,0.0504,0.0506,0.052,0.0529,0.0535,0.0564,0.0558,0.0572,0.0572,0.0563,0.0601,0.0607,0.0581,0.0563,0.0602,0.0637,0.0646,0.0528,0.0527,0.0526,0.0525,0,0,0.0497,0.0495,0.05,0.0508,0.0514,0.0518,0.0541,0.0559,0.0582,0.0595,0.0629,0.0635,0.0642,0.0642,0.0637,0.0651,0.0712,0.0643,0.0642,0.0686,0.078,0.0801,0.0813,0.0704,0.0705,0.0706,0.0799,0,0.0515,0.0526,0.0524,0.0547,0.0554,0.0561,0.0582,0.06,0.0618,0.065,0.0658,0.0686,0.0667,0.0688,0.0701,0.0704,0.0734,0.069,0.073,0.0731,0.075,0.0822,0.06,0.0665,0.0807,0.0808,0.0809,0,0.0532,0.0536,0.0556,0.0574,0.058,0.06,0.0637,0.0655,0.0692,0.071,0.0743,0.0751,0.0787,0.0758,0.0802,0.0782,0.0793,0.079,0.0794,0.0793,0.0768,0.0643,0.0675,0.0823,0.0822,0.0821,0.082,0,0.0548,0.0564,0.0581,0.0587,0.0605,0.0631,0.0649,0.0682,0.0706,0.076,0.0789,0.0825,0.0856,0.0868,0.0884,0.0852,0.093,0.088,0.0913,0.0915,0.072,0.0704,0.0915,0.0915,0.0915,0.0915,0.0915,0,0.0566,0.0584,0.0594,0.0605,0.064,0.0652,0.0699,0.0723,0.0764,0.08,0.083,0.0868,0.0886,0.093,0.0925,0.0968,0.0973,0.0942,0.0945,0.0741,0.0726,0.0843,0.0834,0.0918,0.0918,0.0917,0.0916,0,0.0587,0.0589,0.0612,0.0636,0.0648,0.0679,0.0724,0.0754,0.0795,0.0846,0.0872,0.0925,0.0994,0.102,0.1054,0.1034,0.1057,0.1069,0.0849,0.0825,0.1017,0.101,0.1111,0.1113,0.1114,0.1115,0.1116,0,0.0598,0.061,0.0635,0.0653,0.0672,0.0712,0.0739,0.0773,0.0799,0.0876,0.0899,0.0993,0.104,0.1123,0.1098,0.1124,0.114,0.0946,0.0838,0.1048,0.104,0.103,0.1021,0.0607,0.0604,0.0601,0.0599,0,0.0626,0.0637,0.0652,0.068,0.0711,0.0735,0.0774,0.0788,0.0832,0.0873,0.0934,0.0982,0.1057,0.0993,0.1046,0.1004,0.0923,0.0898,0.1162,0.0611,0.0585,0.0574,0.0579,0.0576,0.0578,0.058,0.0581,0.0582,0.0656,0.0668,0.0684,0.0709,0.0737,0.0751,0.076,0.0788,0.0816,0.0842,0.0906,0.0906,0.0844,0.0835,0.0848,0.0834,0.0876,0.0742,0.0744,0.075,0.0694,0.0674,0.0671,0.0674,0.0676,0.0678,0.068,0,0.0688,0.0695,0.0713,0.0729,0.0741,0.0763,0.0775,0.0757,0.077,0.0783,0.0815,0.0646,0.0593,0.0611,0.0548,0.0561,0.0496,0.0529,0.0384,0.0402,0.042,0.0344,0.0231,0.0231,0.0232,0.0233,0,0,0.071,0.0718,0.0709,0.072,0.0739,0.074,0.0739,0.0708,0.0685,0.0627,0.0576,0.0551,0.0521,0.0374,0.0327,0.0303,0.0371,0.0276,0.0597,0.0439,0.0459,0.0463,0.0358,0,0,0,0,0]},{"header":{"parameterUnit":"m.s-1","parameterCategory":2,"la1":30.2991,"la2":30.254,"lo1":-89.0895,"lo2":-89.0444,"dy":0.0017,"dx":0.0017,"nx":28,"ny":28,"refTime":"2025-11-15T03:00:00:Z","depth":"2","parameterNumber":3,"parameterNumberName":"V-component_of_CURRENTS"},"data":[0,0,0,0,0,0,0,0,0,0,0,0,0,0,0,0,0,0,0,0,0,0,0,0,0,0,0,0,0,0,0,0,0,0,0,0,0,0,0,0,0,0,0,0,0,0,0,0,0,0,0,0,0,0,0,0,0,0,-0.0354,-0.0354,0,-0.0377,-0.0378,-0.0378,-0.0369,-0.0368,-0.0368,-0.0367,-0.0386,-0.0387,-0.0388,0,0,0,0,0,0,0,0,0,0,0,0,0,-0.0309,-0.0309,-0.0354,-0.0354,-0.0355,-0.0377,-0.0378,-0.0378,-0.0369,-0.0368,-0.0368,-0.0367,-0.0386,-0.0387,-0.0388,0,0,0,0,0,0,0,0,0,0,0,0,0,-0.0329,-0.031,-0.0354,-0.0353,-0.0353,-0.0377,-0.0378,-0.0378,-0.0369,-0.0368,-0.0367,-0.0367,-0.0386,-0.0387,-0.0389,-0.0413,0,0,-0.0393,-0.0394,0,0,0,0,0,0,0,0,-0.0328,-0.0331,-0.0353,-0.0353,-0.0353,-0.037,-0.0369,-0.039,-0.0369,-0.0362,-0.0367,-0.0366,-0.0381,-0.0383,-0.0389,-0.0414,-0.0415,-0.0393,-0.0394,-0.0395,-0.0395,0,0,0,0,0,0,0,-0.0327,-0.033,-0.0363,-0.0353,-0.0354,-0.0354,-0.0356,-0.0373,-0.0375,-0.0363,-0.0362,-0.0366,-0.0381,-0.0387,-0.0389,-0.0415,-0.0393,-0.0395,-0.0395,-0.0396,-0.0475,-0.0476,0,0,0,0,0,0,-0.0326,-0.0329,-0.0362,-0.0363,-0.0339,-0.0356,-0.0358,-0.0365,-0.0375,-0.0376,-0.0367,-0.0366,-0.0385,-0.0387,-0.039,-0.0419,-0.0395,-0.0396,-0.0397,-0.0473,-0.0475,-0.0476,0,0,0,0,0,0,-0.0325,-0.0328,-0.0361,-0.0347,-0.0351,-0.0357,-0.0365,-0.0366,-0.0368,-0.0378,-0.0379,-0.0368,-0.0385,-0.0388,-0.0412,-0.0419,-0.0397,-0.0398,-0.0472,-0.0474,-0.0476,-0.0477,0,0,0,0,0,0,-0.0323,-0.0328,-0.0332,-0.0347,-0.0352,-0.0374,-0.0366,-0.0367,-0.0372,-0.0371,-0.038,-0.0381,-0.0384,-0.0409,-0.0413,-0.0421,-0.0399,-0.047,-0.0473,-0.0475,-0.0475,-0.0478,-0.0481,0,0,0,0,0,-0.0322,-0.033,-0.0332,-0.0336,-0.0357,-0.0374,-0.0377,-0.0378,-0.0373,-0.0377,-0.0389,-0.0381,-0.0426,-0.0412,-0.0416,-0.0424,-0.0469,-0.0472,-0.0475,-0.0474,-0.0478,-0.0481,0,0,0,0,0,0,-0.0314,-0.033,-0.0333,-0.0346,-0.0358,-0.0372,-0.0376,-0.0379,-0.0392,-0.0388,-0.0397,-0.04,-0.0423,-0.043,-0.0414,-0.0456,-0.0446,-0.045,-0.0444,-0.0448,-0.0451,-0.0427,-0.0401,0,0,0,0,0,-0.0315,-0.0323,-0.034,-0.035,-0.0355,-0.0366,-0.0372,-0.0374,-0.0388,-0.0392,-0.0401,-0.0417,-0.0439,-0.0448,-0.0465,-0.0489,-0.0488,-0.0499,-0.0502,-0.0504,-0.049,-0.0514,-0.0517,-0.0485,-0.0485,-0.0485,0,0,-0.0314,-0.0325,-0.0329,-0.0349,-0.0356,-0.0363,-0.0368,-0.0376,-0.0382,-0.0393,-0.0404,-0.0425,-0.0449,-0.0475,-0.0486,-0.048,-0.0514,-0.0508,-0.0509,-0.0493,-0.0517,-0.052,-0.0523,-0.0487,-0.0487,-0.0486,0,0,-0.0314,-0.0327,-0.033,-0.0339,-0.0351,-0.0361,-0.0363,-0.0377,-0.0383,-0.0403,-0.0416,-0.0442,-0.047,-0.049,-0.0505,-0.0537,-0.0529,-0.0547,-0.054,-0.0565,-0.0567,-0.0569,-0.0567,-0.0569,-0.0548,-0.0548,-0.0548,0,-0.0312,-0.0318,-0.0334,-0.0338,-0.0341,-0.0359,-0.0358,-0.0374,-0.0394,-0.0401,-0.0403,-0.0453,-0.0475,-0.051,-0.0523,-0.0541,-0.0545,-0.0521,-0.0566,-0.0568,-0.057,-0.0568,-0.057,-0.0548,-0.0548,-0.0548,-0.0548,0,-0.0311,-0.0314,-0.0317,-0.0326,-0.0335,-0.0339,-0.0358,-0.0369,-0.0379,-0.0392,-0.0423,-0.0459,-0.0483,-0.0506,-0.0524,-0.0555,-0.055,-0.0566,-0.055,-0.0573,-0.057,-0.0572,-0.0549,-0.0549,-0.0549,-0.0548,0,0,-0.0313,-0.0314,-0.0314,-0.0307,-0.0325,-0.0329,-0.0345,-0.0362,-0.0361,-0.0395,-0.04,-0.0459,-0.0471,-0.0489,-0.0521,-0.0548,-0.0573,-0.056,-0.0562,-0.0545,-0.0608,-0.0544,-0.054,-0.0598,-0.0598,-0.0599,-0.0599,0,-0.0305,-0.0296,-0.0304,-0.0297,-0.0292,-0.031,-0.0318,-0.0337,-0.0354,-0.0366,-0.0413,-0.043,-0.0468,-0.0477,-0.0514,-0.0555,-0.0578,-0.0569,-0.0599,-0.0599,-0.0529,-0.054,-0.0514,-0.0507,-0.0601,-0.0601,-0.0601,0,-0.03,-0.0292,-0.0276,-0.0267,-0.0266,-0.0266,-0.0271,-0.0282,-0.0312,-0.0323,-0.0354,-0.0383,-0.0429,-0.0456,-0.0528,-0.052,-0.0559,-0.0593,-0.0594,-0.0529,-0.0539,-0.0502,-0.0507,-0.0604,-0.0604,-0.0604,-0.0603,0,-0.0281,-0.0273,-0.0253,-0.0252,-0.0249,-0.0243,-0.0244,-0.0264,-0.0264,-0.029,-0.0285,-0.0347,-0.0359,-0.0431,-0.0496,-0.0514,-0.0562,-0.0597,-0.0575,-0.057,-0.0548,-0.054,-0.0644,-0.0644,-0.0644,-0.0644,-0.0644,0,-0.0266,-0.025,-0.0237,-0.0225,-0.02,-0.021,-0.019,-0.0201,-0.021,-0.0197,-0.0254,-0.0249,-0.0353,-0.0394,-0.0473,-0.051,-0.0543,-0.056,-0.0566,-0.0548,-0.054,-0.0627,-0.0625,-0.0644,-0.0644,-0.0644,-0.0644,0,-0.0239,-0.0235,-0.0208,-0.0193,-0.0186,-0.0165,-0.0147,-0.0134,-0.0144,-0.0126,-0.0129,-0.0171,-0.0208,-0.0301,-0.0398,-0.0451,-0.0516,-0.0524,-0.0476,-0.0476,-0.0515,-0.0513,-0.0499,-0.0497,-0.0495,-0.0494,-0.0492,0,-0.0216,-0.0201,-0.0175,-0.0156,-0.0143,-0.0116,-0.0096,-0.01,-0.0084,-0.0072,-0.0057,-0.0078,-0.0075,-0.0173,-0.0265,-0.0356,-0.044,-0.0409,-0.044,-0.0492,-0.05,-0.0502,-0.0503,-0.042,-0.0418,-0.0417,-0.0416,0,-0.0172,-0.0167,-0.0145,-0.0109,-0.0081,-0.0051,-0.0021,0.0001,0.0007,0.0044,0.0084,0.0094,0.0034,-0.0042,-0.0153,-0.0221,-0.0392,-0.0377,-0.0459,-0.0446,-0.0414,-0.0423,-0.0427,-0.0402,-0.0404,-0.0405,-0.0405,-0.0406,-0.0134,-0.0113,-0.0092,-0.0056,-0.0024,0.0016,0.0053,0.0095,0.0152,0.0227,0.0212,0.0218,0.0092,-0.0024,-0.0107,-0.021,-0.0231,-0.0325,-0.0332,-0.034,-0.0316,-0.028,-0.0239,-0.0239,-0.0239,-0.024,-0.024,0,-0.0092,-0.0075,-0.0041,0.0001,0.0043,0.0049,0.0105,0.0157,0.0254,0.0311,0.0381,0.023,0.0167,0.0007,-0.0105,-0.0167,-0.0191,-0.0219,-0.0271,-0.0282,-0.0293,-0.027,-0.0179,-0.0179,-0.018,-0.018,0,0,-0.0068,-0.0035,-0.0023,0.0052,0.0087,0.0152,0.0191,0.0283,0.0329,0.0393,0.0371,0.0387,0.0154,0.0054,-0.0034,-0.0107,-0.0167,-0.0105,-0.0143,-0.0199,-0.0208,-0.034,-0.0314,0,0,0,0,0]}],[{"header":{"parameterUnit":"m.s-1","parameterCategory":2,"la1":30.2991,"la2":30.254,"lo1":-89.0895,"lo2":-89.0444,"dy":0.0017,"dx":0.0017,"nx":28,"ny":28,"refTime":"2025-11-15T03:00:00:Z","depth":"4","parameterNumber":2,"parameterNumberName":"U-component_of_CURRENTS"},"data":[0,0,0,0,0,0,0,0,0,0,0,0,0,0,0,0,0,0,0,0,0,0,0,0,0,0,0,0,0,0,0,0,0,0,0,0,0,0,0,0,0,0,0,0,0,0,0,0,0,0,0,0,0,0,0,0,0,0,-0.0136,-0.0136,0,-0.0124,-0.0124,-0.0124,-0.01,-0.0099,-0.0099,-0.0098,-0.0135,-0.0137,-0.0138,0,0,0,0,0,0,0,0,0,0,0,0,0,-0.0186,-0.0186,-0.0137,-0.0136,-0.0136,-0.0124,-0.0124,-0.0124,-0.01,-0.0099,-0.0098,-0.0098,-0.0135,-0.0137,-0.0139,0,0,0,0,0,0,0,0,0,0,0,0,0,-0.0171,-0.0185,-0.0137,-0.0121,-0.0119,-0.0124,-0.0124,-0.0124,-0.01,-0.0099,-0.0098,-0.0097,-0.0134,-0.0136,-0.0139,-0.0175,0,0,-0.0146,-0.0147,0,0,0,0,0,0,0,0,-0.0172,-0.0169,-0.0123,-0.0122,-0.012,-0.0111,-0.0155,-0.0143,-0.0101,-0.011,-0.0098,-0.0097,-0.0131,-0.0133,-0.0136,-0.0177,-0.0178,-0.0147,-0.0148,-0.0149,-0.015,0,0,0,0,0,0,0,-0.0173,-0.017,-0.0134,-0.0123,-0.0121,-0.013,-0.0127,-0.0153,-0.0129,-0.0109,-0.0107,-0.0102,-0.013,-0.0134,-0.0137,-0.0179,-0.0146,-0.0149,-0.015,-0.0151,-0.0232,-0.0232,0,0,0,0,0,0,-0.0168,-0.0171,-0.0134,-0.0133,-0.0141,-0.013,-0.0126,-0.0116,-0.0128,-0.0127,-0.0103,-0.0101,-0.013,-0.0134,-0.0138,-0.0152,-0.0149,-0.0151,-0.0153,-0.0231,-0.0232,-0.0232,0,0,0,0,0,0,-0.0169,-0.0165,-0.0135,-0.015,-0.0147,-0.0129,-0.0119,-0.0117,-0.0104,-0.0122,-0.0123,-0.009,-0.0129,-0.0135,-0.0152,-0.0154,-0.0152,-0.0155,-0.023,-0.0231,-0.0232,-0.0199,0,0,0,0,0,0,-0.017,-0.0165,-0.0158,-0.015,-0.0146,-0.0131,-0.012,-0.0117,-0.0102,-0.0099,-0.0112,-0.0115,-0.0129,-0.0148,-0.0154,-0.0158,-0.0157,-0.0229,-0.0231,-0.0232,-0.0199,-0.0199,-0.0198,0,0,0,0,0,-0.0172,-0.0168,-0.0158,-0.0153,-0.0136,-0.0131,-0.013,-0.0116,-0.0103,-0.0101,-0.0107,-0.0114,-0.0161,-0.0151,-0.0158,-0.0162,-0.0229,-0.023,-0.0232,-0.0199,-0.0199,-0.0198,0,0,0,0,0,0,-0.0192,-0.0165,-0.0153,-0.0142,-0.0133,-0.0126,-0.0122,-0.0111,-0.0114,-0.0108,-0.0122,-0.0126,-0.0144,-0.0162,-0.015,-0.0191,-0.0197,-0.02,-0.017,-0.0169,-0.0169,-0.016,-0.0159,0,0,0,0,0,-0.0192,-0.0177,-0.0159,-0.0151,-0.0143,-0.013,-0.0125,-0.0113,-0.0114,-0.0112,-0.0119,-0.0136,-0.0161,-0.0169,-0.0193,-0.0215,-0.022,-0.0224,-0.0224,-0.0223,-0.0223,-0.0238,-0.0239,-0.0237,-0.0237,-0.0237,0,0,-0.0201,-0.0182,-0.0175,-0.0154,-0.0145,-0.0138,-0.0125,-0.0113,-0.0111,-0.0119,-0.0121,-0.0135,-0.0167,-0.0188,-0.0198,-0.0199,-0.0223,-0.0225,-0.0224,-0.0224,-0.024,-0.024,-0.024,-0.0238,-0.0238,-0.0238,0,0,-0.021,-0.019,-0.0179,-0.0168,-0.0146,-0.014,-0.0131,-0.0116,-0.011,-0.0116,-0.0124,-0.0136,-0.0167,-0.0187,-0.0204,-0.022,-0.0221,-0.0227,-0.0215,-0.023,-0.0229,-0.0229,-0.0214,-0.0213,-0.0225,-0.0225,-0.0224,0,-0.022,-0.02,-0.0179,-0.0166,-0.0157,-0.0137,-0.0129,-0.0129,-0.0121,-0.0123,-0.0113,-0.0151,-0.017,-0.0203,-0.0201,-0.0218,-0.0213,-0.0209,-0.0227,-0.0227,-0.0227,-0.0212,-0.0211,-0.0223,-0.0223,-0.0223,-0.0224,0,-0.0221,-0.0203,-0.0197,-0.0171,-0.0163,-0.0153,-0.0142,-0.0137,-0.0124,-0.0122,-0.0137,-0.0157,-0.0175,-0.0187,-0.0196,-0.0213,-0.0203,-0.0222,-0.0221,-0.0225,-0.0209,-0.0209,-0.0221,-0.0222,-0.0222,-0.0222,0,0,-0.0241,-0.0203,-0.0199,-0.0185,-0.016,-0.0154,-0.0153,-0.0149,-0.0147,-0.0143,-0.0145,-0.0175,-0.0166,-0.0185,-0.0197,-0.0208,-0.0196,-0.0207,-0.0208,-0.0179,-0.02,-0.0202,-0.0201,-0.0212,-0.0212,-0.0213,-0.0179,0,-0.0245,-0.0221,-0.0203,-0.0188,-0.0174,-0.0159,-0.0161,-0.0156,-0.0152,-0.0152,-0.0166,-0.0172,-0.0173,-0.0169,-0.0181,-0.02,-0.0197,-0.0202,-0.0213,-0.0213,-0.0204,-0.0202,-0.0214,-0.0179,-0.0179,-0.0178,-0.0178,0,-0.0245,-0.0226,-0.0208,-0.0184,-0.0177,-0.0168,-0.0159,-0.0157,-0.016,-0.0156,-0.0157,-0.016,-0.0169,-0.0169,-0.0186,-0.0184,-0.0182,-0.0194,-0.0193,-0.0209,-0.0215,-0.0183,-0.0178,-0.0178,-0.0178,-0.0178,-0.0178,0,-0.0258,-0.0229,-0.0213,-0.0203,-0.0178,-0.0169,-0.0157,-0.0154,-0.0152,-0.0146,-0.0141,-0.0153,-0.0149,-0.0162,-0.0169,-0.0171,-0.0186,-0.0198,-0.0195,-0.0194,-0.0215,-0.0216,-0.0205,-0.0205,-0.0205,-0.0206,-0.0206,0,-0.0259,-0.0248,-0.0213,-0.0202,-0.0186,-0.0166,-0.0154,-0.0146,-0.0138,-0.0139,-0.0132,-0.0146,-0.0146,-0.0155,-0.0163,-0.0173,-0.0178,-0.0189,-0.0192,-0.02,-0.02,-0.0213,-0.0215,-0.0204,-0.0205,-0.0205,-0.0205,0,-0.0273,-0.025,-0.0232,-0.0201,-0.0187,-0.0173,-0.0141,-0.0137,-0.0123,-0.0122,-0.0114,-0.0128,-0.0144,-0.0145,-0.0166,-0.0162,-0.0179,-0.018,-0.0163,-0.0167,-0.017,-0.017,-0.0167,-0.0167,-0.0167,-0.0167,-0.0166,0,-0.0274,-0.0265,-0.0232,-0.0215,-0.0194,-0.0167,-0.0151,-0.0129,-0.0125,-0.0128,-0.0135,-0.0141,-0.0152,-0.0169,-0.0185,-0.0181,-0.0188,-0.0161,-0.0185,-0.0166,-0.0169,-0.017,-0.017,-0.0166,-0.0166,-0.0166,-0.0166,0,-0.0285,-0.0275,-0.0261,-0.0225,-0.0198,-0.0173,-0.0146,-0.0136,-0.0119,-0.012,-0.014,-0.0146,-0.0168,-0.0186,-0.0168,-0.0181,-0.0163,-0.0161,-0.0161,-0.0183,-0.0165,-0.0169,-0.0169,-0.0166,-0.0166,-0.0166,-0.0166,0,-0.0298,-0.029,-0.0268,-0.0236,-0.0205,-0.0169,-0.0155,-0.014,-0.0129,-0.0123,-0.0147,-0.0168,-0.0182,-0.0189,-0.0197,-0.0183,-0.0187,-0.0163,-0.0163,-0.0163,-0.0182,-0.016,-0.0159,0,0,0,0,0,-0.0306,-0.0295,-0.0274,-0.0229,-0.0201,-0.0176,-0.015,-0.0139,-0.0127,-0.0134,-0.0128,-0.0154,-0.0163,-0.0194,-0.0181,-0.0204,-0.0185,-0.0186,-0.0157,-0.0165,-0.0165,-0.0189,0,0,0,0,0,0,-0.0306,-0.0299,-0.0281,-0.0231,-0.0196,-0.0159,-0.0137,-0.0128,-0.013,-0.0128,-0.0146,-0.0143,-0.0171,-0.0174,-0.0183,-0.0184,-0.0158,-0.0199,-0.0198,-0.0165,-0.0165,-0.0165,-0.019,0,0,0,0,0]},{"header":{"parameterUnit":"m.s-1","parameterCategory":2,"la1":30.2991,"la2":30.254,"lo1":-89.0895,"lo2":-89.0444,"dy":0.0017,"dx":0.0017,"nx":28,"ny":28,"refTime":"2025-11-15T03:00:00:Z","depth":"4","parameterNumber":3,"parameterNumberName":"V-component_of_CURRENTS"},"data":[0,0,0,0,0,0,0,0,0,0,0,0,0,0,0,0,0,0,0,0,0,0,0,0,0,0,0,0,0,0,0,0,0,0,0,0,0,0,0,0,0,0,0,0,0,0,0,0,0,0,0,0,0,0,0,0,0,0,0.0202,0.0202,0,0.0162,0.0162,0.0161,0.012,0.012,0.0119,0.0119,0.0068,0.0068,0.0067,0,0,0,0,0,0,0,0,0,0,0,0,0,0.0232,0.0232,0.0202,0.0202,0.0201,0.0162,0.0162,0.0161,0.0121,0.012,0.0119,0.0119,0.0069,0.0068,0.0067,0,0,0,0,0,0,0,0,0,0,0,0,0,0.0209,0.0232,0.0202,0.0176,0.0173,0.0162,0.0162,0.0161,0.0121,0.012,0.0119,0.0118,0.0069,0.0068,0.0067,0.0076,0,0,0.0063,0.0062,0,0,0,0,0,0,0,0,0.021,0.0208,0.018,0.0178,0.0175,0.0145,0.0154,0.0132,0.0121,0.0141,0.0119,0.0118,0.0094,0.009,0.0085,0.0073,0.0071,0.0063,0.0062,0.0061,0.0061,0,0,0,0,0,0,0,0.0212,0.0209,0.0186,0.018,0.0177,0.0163,0.0158,0.0149,0.0122,0.0139,0.0136,0.0132,0.0092,0.0086,0.0083,0.0071,0.0063,0.0062,0.0061,0.006,0.0,-0.0,0,0,0,0,0,0,0.0218,0.0211,0.0188,0.0185,0.0191,0.0163,0.0158,0.0156,0.0123,0.0117,0.0132,0.013,0.0089,0.0085,0.0082,0.0035,0.0061,0.006,0.006,0.0001,0.0,-0.0001,0,0,0,0,0,0,0.0219,0.0217,0.0189,0.0197,0.0192,0.0163,0.0161,0.0155,0.0128,0.0118,0.0111,0.0108,0.0088,0.0083,0.0051,0.0035,0.006,0.0059,0.0002,0.0001,-0.0,-0.0023,0,0,0,0,0,0,0.022,0.0217,0.0212,0.0197,0.0192,0.0168,0.0161,0.0155,0.0128,0.0124,0.0096,0.0091,0.0087,0.0053,0.005,0.0033,0.0058,0.0003,0.0002,0.0,-0.0021,-0.0025,-0.0028,0,0,0,0,0,0.0221,0.0218,0.0213,0.0209,0.0188,0.0168,0.0163,0.014,0.0128,0.0113,0.0091,0.0091,0.0041,0.0052,0.0048,0.003,0.0004,0.0002,0.0,-0.002,-0.0024,-0.0028,0,0,0,0,0,0,0.0226,0.0213,0.0207,0.0199,0.0179,0.016,0.0146,0.013,0.0102,0.0092,0.0081,0.0074,0.0041,0.0038,0.005,0.0008,0.0023,0.002,0.0009,0.0004,0.0001,0.0006,0.0057,0,0,0,0,0,0.0227,0.022,0.0204,0.0195,0.0185,0.0162,0.0149,0.0131,0.0108,0.0093,0.0071,0.0051,0.0035,0.002,0.0006,-0.0016,-0.0006,-0.003,-0.0034,-0.0037,-0.0035,-0.0034,-0.0037,-0.0007,-0.0007,-0.0007,0,0,0.0227,0.0218,0.0214,0.0195,0.0178,0.0159,0.0151,0.0123,0.0102,0.0093,0.0051,0.0036,0.0026,-0.0002,-0.0017,-0.0009,-0.0041,-0.0039,-0.0041,-0.0038,-0.0036,-0.0039,-0.0041,-0.0008,-0.0008,-0.0008,0,0,0.0221,0.0213,0.0203,0.0186,0.0158,0.0145,0.0132,0.0101,0.0079,0.0044,0.0033,0.0006,-0.0025,-0.0034,-0.004,-0.007,-0.0059,-0.008,-0.0094,-0.0093,-0.0095,-0.0097,-0.0087,-0.0088,-0.0082,-0.0082,-0.0082,0,0.0217,0.0205,0.0195,0.0178,0.016,0.0136,0.0114,0.0094,0.0052,0.0035,0.0024,-0.0024,-0.0036,-0.0058,-0.0072,-0.0077,-0.0073,-0.0076,-0.0097,-0.0098,-0.0099,-0.0089,-0.0089,-0.0083,-0.0083,-0.0083,-0.0083,0,0.0204,0.0189,0.0179,0.0152,0.0132,0.0107,0.0082,0.0053,0.0024,0.0005,-0.0036,-0.0053,-0.008,-0.009,-0.0092,-0.0111,-0.0103,-0.01,-0.0083,-0.0104,-0.0091,-0.0091,-0.0085,-0.0085,-0.0085,-0.0084,0,0,0.0205,0.0176,0.017,0.015,0.0114,0.0094,0.0062,0.0027,0.0002,-0.0036,-0.0066,-0.0096,-0.0108,-0.0116,-0.0124,-0.0126,-0.0133,-0.0121,-0.0121,-0.0105,-0.0127,-0.014,-0.0141,-0.0135,-0.0135,-0.0135,-0.0113,0,0.0191,0.0161,0.0149,0.0109,0.0087,0.006,0.0033,-0.0001,-0.0031,-0.0065,-0.0082,-0.0111,-0.0116,-0.0131,-0.0137,-0.0135,-0.0134,-0.0139,-0.0114,-0.0113,-0.0117,-0.0142,-0.0136,-0.0113,-0.0113,-0.0113,-0.0113,0,0.0175,0.0157,0.0124,0.0082,0.007,0.0045,-0.0004,-0.003,-0.0068,-0.009,-0.0117,-0.0132,-0.0148,-0.0146,-0.0147,-0.0151,-0.0142,-0.0136,-0.0134,-0.0138,-0.0126,-0.0089,-0.0113,-0.0113,-0.0113,-0.0113,-0.0113,0,0.0171,0.0134,0.0108,0.0093,0.0048,0.0025,-0.0002,-0.0042,-0.0062,-0.0101,-0.0116,-0.0142,-0.015,-0.015,-0.014,-0.0147,-0.013,-0.0134,-0.0134,-0.0134,-0.0115,-0.0114,-0.0129,-0.0129,-0.0129,-0.0129,-0.0129,0,0.0152,0.0128,0.0103,0.0085,0.0047,0.0019,-0.0021,-0.005,-0.0079,-0.01,-0.0125,-0.014,-0.0151,-0.0146,-0.0141,-0.0136,-0.0127,-0.014,-0.0134,-0.0126,-0.0126,-0.0115,-0.0113,-0.0128,-0.0128,-0.0128,-0.0129,0,0.0136,0.0124,0.0093,0.0056,0.0042,0.0013,-0.0026,-0.005,-0.0073,-0.0097,-0.0106,-0.0132,-0.0141,-0.0137,-0.0131,-0.0131,-0.0124,-0.0118,-0.01,-0.0093,-0.0129,-0.013,-0.0133,-0.0133,-0.0134,-0.0134,-0.0134,0,0.0117,0.0105,0.0077,0.0061,0.0039,0.0002,-0.0022,-0.005,-0.0065,-0.0091,-0.0099,-0.0116,-0.0134,-0.0135,-0.0133,-0.0125,-0.0124,-0.0111,-0.014,-0.0138,-0.0132,-0.0132,-0.0132,-0.0135,-0.0135,-0.0135,-0.0135,0,0.0085,0.0086,0.0065,0.0042,0.0017,-0.001,-0.004,-0.0054,-0.0079,-0.008,-0.011,-0.0129,-0.0138,-0.0153,-0.0139,-0.0132,-0.0122,-0.0115,-0.0115,-0.0142,-0.014,-0.0134,-0.0133,-0.0136,-0.0136,-0.0136,-0.0136,0,0.0062,0.005,0.0039,0.0013,-0.0004,-0.003,-0.0048,-0.0072,-0.009,-0.0111,-0.0115,-0.0136,-0.0141,-0.0154,-0.014,-0.0141,-0.0154,-0.0153,-0.0151,-0.015,-0.0167,-0.0169,-0.0173,0,0,0,0,0,0.0035,0.0026,0.0008,-0.0017,-0.0026,-0.0037,-0.0061,-0.0073,-0.0085,-0.0109,-0.0117,-0.0131,-0.0151,-0.0157,-0.0166,-0.0149,-0.0148,-0.0158,-0.0144,-0.0143,-0.0141,-0.0161,0,0,0,0,0,0,0.0015,0.0002,0.0002,-0.0028,-0.0045,-0.0062,-0.008,-0.009,-0.0107,-0.0116,-0.013,-0.0124,-0.0143,-0.0143,-0.0161,-0.0161,-0.0153,-0.016,-0.016,-0.0143,-0.0142,-0.0141,-0.0161,0,0,0,0,0]}]]